| time (UTC) | temp F | wind direction | speed MPH | gust MPH | rain 1hr in | rain 24hr in | rain mn in | humidity % | barometer mb |
| 20260510233007 | 85 | 109 | 3.0 | 8.0 | 0.00 | 0.00 | 0.00 | 64 | 1010.2 |
| 20260510231503 | 85 | 53 | 2.0 | 6.0 | 0.00 | 0.00 | 0.00 | 65 | 1010.5 |
| 20260510230006 | 86 | 101 | 4.0 | 11.0 | 0.00 | 0.00 | 0.00 | 62 | 1010.0 |
| 20260510224503 | 88 | 80 | 3.0 | 9.0 | 0.00 | 0.00 | 0.00 | 60 | 1009.7 |
| 20260510223004 | 88 | 36 | 2.0 | 8.0 | 0.00 | 0.00 | 0.00 | 61 | 1009.4 |
| 20260510221507 | 87 | 216 | 3.0 | 11.0 | 0.00 | 0.00 | 0.00 | 62 | 1009.5 |
| 20260510220005 | 88 | 75 | 3.0 | 12.0 | 0.00 | 0.00 | 0.00 | 59 | 1009.7 |
| 20260510214503 | 89 | 45 | 5.0 | 11.0 | 0.00 | 0.00 | 0.00 | 58 | 1009.9 |
| 20260510213002 | 89 | 84 | 3.0 | 10.0 | 0.00 | 0.00 | 0.00 | 57 | 1010.2 |
| 20260510211505 | 90 | 66 | 5.0 | 10.0 | 0.00 | 0.00 | 0.00 | 57 | 1010.4 |
| 20260510210005 | 89 | 115 | 3.0 | 10.0 | 0.00 | 0.00 | 0.00 | 58 | 1010.5 |
| 20260510204503 | 89 | 86 | 3.0 | 10.0 | 0.00 | 0.00 | 0.00 | 59 | 1010.4 |
| 20260510203004 | 89 | 131 | 2.0 | 10.0 | 0.00 | 0.00 | 0.00 | 60 | 1010.5 |
| 20260510201502 | 88 | 77 | 3.0 | 10.0 | 0.00 | 0.00 | 0.00 | 62 | 1010.5 |
| 20260510200005 | 88 | 52 | 4.0 | 12.0 | 0.00 | 0.00 | 0.00 | 61 | 1010.6 |
| 20260510194503 | 87 | 52 | 5.0 | 12.0 | 0.00 | 0.00 | 0.00 | 60 | 1010.8 |
| 20260510193005 | 87 | 97 | 4.0 | 10.0 | 0.00 | 0.00 | 0.00 | 63 | 1010.9 |
| 20260510191504 | 87 | 57 | 3.0 | 11.0 | 0.00 | 0.00 | 0.00 | 64 | 1010.9 |
| 20260510190006 | 86 | 55 | 4.0 | 12.0 | 0.00 | 0.00 | 0.00 | 65 | 1011.1 |
| 20260510184502 | 86 | 248 | 2.0 | 11.0 | 0.00 | 0.00 | 0.00 | 64 | 1011.0 |
| 20260510183004 | 85 | 5 | 3.0 | 8.0 | 0.00 | 0.00 | 0.00 | 66 | 1011.2 |
| 20260510181504 | 85 | 119 | 3.0 | 10.0 | 0.00 | 0.00 | 0.00 | 67 | 1011.5 |
| 20260510180004 | 85 | 88 | 2.0 | 7.0 | 0.00 | 0.00 | 0.00 | 67 | 1011.7 |
| 20260510174505 | 83 | 102 | 4.0 | 9.0 | 0.00 | 0.00 | 0.00 | 68 | 1011.9 |
| 20260510173002 | 83 | 71 | 2.0 | 9.0 | 0.00 | 0.00 | 0.00 | 71 | 1012.3 |
| 20260510171503 | 83 | 63 | 3.0 | 8.0 | 0.00 | 0.00 | 0.00 | 72 | 1012.4 |
| 20260510170006 | 82 | 186 | 3.0 | 13.0 | 0.00 | 0.00 | 0.00 | 74 | 1012.6 |
| 20260510164502 | 82 | 97 | 4.0 | 11.0 | 0.00 | 0.00 | 0.00 | 72 | 1012.6 |
| 20260510163003 | 82 | 98 | 3.0 | 10.0 | 0.00 | 0.00 | 0.00 | 75 | 1012.6 |
| 20260510161505 | 82 | 101 | 4.0 | 10.0 | 0.00 | 0.00 | 0.00 | 74 | 1012.4 |
| 20260510160003 | 81 | 44 | 4.0 | 9.0 | 0.00 | 0.00 | 0.00 | 75 | 1012.4 |
| 20260510154502 | 82 | 152 | 4.0 | 10.0 | 0.00 | 0.00 | 0.00 | 73 | 1012.3 |
| 20260510153003 | 81 | 65 | 2.0 | 7.0 | 0.00 | 0.00 | 0.00 | 74 | 1012.3 |
| 20260510151503 | 80 | 65 | 2.0 | 6.0 | 0.00 | 0.00 | 0.00 | 75 | 1012.3 |
| 20260510150005 | 79 | 117 | 3.0 | 8.0 | 0.00 | 0.00 | 0.00 | 76 | 1012.3 |
| 20260510144508 | 79 | 126 | 1.0 | 6.0 | 0.00 | 0.00 | 0.00 | 78 | 1012.2 |
| 20260510143002 | 78 | 120 | 1.0 | 7.0 | 0.00 | 0.00 | 0.00 | 78 | 1011.9 |
| 20260510141502 | 77 | 121 | 1.0 | 5.0 | 0.00 | 0.00 | 0.00 | 79 | 1011.8 |
| 20260510140007 | 76 | 133 | 2.0 | 7.0 | 0.00 | 0.00 | 0.00 | 80 | 1011.7 |
| 20260510134502 | 74 | 74 | 2.0 | 5.0 | 0.00 | 0.00 | 0.00 | 83 | 1011.6 |
| 20260510133007 | 73 | 107 | 3.0 | 6.0 | 0.00 | 0.00 | 0.00 | 85 | 1011.3 |
| 20260510131502 | 72 | 35 | 2.0 | 6.0 | 0.00 | 0.00 | 0.00 | 87 | 1011.1 |
| 20260510130011 | 71 | 90 | 2.0 | 4.0 | 0.00 | 0.00 | 0.00 | 88 | 1010.8 |
| 20260510124501 | 70 | 63 | 0.0 | 4.0 | 0.00 | 0.00 | 0.00 | 91 | 1010.4 |
| 20260510123001 | 69 | 12 | 1.0 | 3.0 | 0.00 | 0.00 | 0.00 | 91 | 1010.3 |
| 20260510121502 | 68 | 240 | 1.0 | 3.0 | 0.00 | 0.00 | 0.00 | 92 | 1010.3 |
| 20260510120014 | 68 | 240 | 0.0 | 2.0 | 0.00 | 0.00 | 0.00 | 92 | 1009.9 |
| 20260510114505 | 68 | 240 | 0.0 | 2.0 | 0.00 | 0.00 | 0.00 | 91 | 1009.7 |
| 20260510113002 | 68 | 252 | 1.0 | 8.0 | 0.00 | 0.00 | 0.00 | 91 | 1009.8 |
| 20260510111502 | 68 | 224 | 0.0 | 3.0 | 0.00 | 0.00 | 0.00 | 92 | 1009.7 |
| 20260510110007 | 68 | 224 | 1.0 | 4.0 | 0.00 | 0.00 | 0.00 | 92 | 1009.6 |
| 20260510104504 | 68 | 222 | 0.0 | 3.0 | 0.00 | 0.03 | 0.00 | 91 | 1009.5 |
| 20260510103002 | 68 | 171 | 0.0 | 3.0 | 0.00 | 0.03 | 0.00 | 91 | 1009.2 |
| 20260510101501 | 69 | 171 | 0.0 | 2.0 | 0.00 | 0.03 | 0.00 | 91 | 1009.2 |
| 20260510100004 | 69 | 128 | 0.0 | 2.0 | 0.00 | 0.03 | 0.00 | 90 | 1009.1 |
| 20260510094501 | 69 | 128 | 0.0 | 4.0 | 0.00 | 0.03 | 0.00 | 90 | 1009.0 |
| 20260510093002 | 70 | 82 | 1.0 | 3.0 | 0.00 | 0.03 | 0.00 | 89 | 1009.0 |
| 20260510091502 | 70 | 67 | 0.0 | 4.0 | 0.00 | 0.03 | 0.00 | 88 | 1008.9 |
| 20260510090003 | 70 | 129 | 1.0 | 9.0 | 0.00 | 0.03 | 0.00 | 87 | 1009.0 |
| 20260510084501 | 70 | 114 | 0.0 | 3.0 | 0.00 | 0.03 | 0.00 | 86 | 1009.0 |
| 20260510083001 | 71 | 146 | 0.0 | 3.0 | 0.00 | 0.03 | 0.00 | 86 | 1009.2 |
| 20260510081502 | 71 | 83 | 2.0 | 6.0 | 0.00 | 0.03 | 0.00 | 86 | 1009.4 |
| 20260510080003 | 70 | 88 | 0.0 | 2.0 | 0.00 | 0.03 | 0.00 | 86 | 1009.4 |
| 20260510074501 | 70 | 88 | 0.0 | 2.0 | 0.00 | 0.03 | 0.00 | 85 | 1009.3 |
| 20260510073001 | 70 | 88 | 1.0 | 2.0 | 0.00 | 0.03 | 0.00 | 84 | 1009.4 |
| 20260510071502 | 71 | 49 | 0.0 | 3.0 | 0.00 | 0.03 | 0.00 | 83 | 1009.4 |
| 20260510070003 | 71 | 68 | 0.0 | 4.0 | 0.00 | 0.03 | 0.00 | 83 | 1009.4 |
| 20260510064505 | 71 | 66 | 0.0 | 3.0 | 0.00 | 0.03 | 0.00 | 82 | 1009.3 |
| 20260510063002 | 72 | 86 | 1.0 | 4.0 | 0.00 | 0.03 | 0.00 | 82 | 1009.3 |
| 20260510061503 | 72 | 126 | 1.0 | 3.0 | 0.00 | 0.03 | 0.00 | 82 | 1009.2 |
| 20260510060009 | 72 | 67 | 0.0 | 2.0 | 0.00 | 0.03 | 0.00 | 83 | 1009.2 |
| 20260510054504 | 72 | 62 | 1.0 | 3.0 | 0.00 | 0.03 | 0.00 | 84 | 1009.0 |
| 20260510053012 | 73 | 66 | 1.0 | 3.0 | 0.00 | 0.03 | 0.00 | 84 | 1009.0 |
| 20260510051507 | 73 | 63 | 1.0 | 3.0 | 0.00 | 0.03 | 0.00 | 84 | 1009.1 |
| 20260510050008 | 74 | 57 | 1.0 | 3.0 | 0.00 | 0.03 | 0.00 | 83 | 1009.2 |
| 20260510044509 | 75 | 62 | 1.0 | 3.0 | 0.00 | 0.03 | 0.03 | 82 | 1009.0 |
| 20260510043004 | 76 | 66 | 0.0 | 2.0 | 0.00 | 0.03 | 0.03 | 80 | 1009.1 |
| 20260510041510 | 76 | 66 | 0.0 | 2.0 | 0.00 | 0.03 | 0.03 | 79 | 1008.9 |
| 20260510040005 | 76 | 66 | 0.0 | 2.0 | 0.00 | 0.03 | 0.03 | 79 | 1008.9 |
| 20260510034503 | 76 | 80 | 0.0 | 2.0 | 0.00 | 0.03 | 0.03 | 79 | 1008.8 |
| 20260510033002 | 77 | 80 | 0.0 | 2.0 | 0.00 | 0.03 | 0.03 | 79 | 1008.6 |
| 20260510031504 | 77 | 105 | 0.0 | 4.0 | 0.00 | 0.03 | 0.03 | 79 | 1008.4 |
| 20260510030008 | 78 | 98 | 0.0 | 3.0 | 0.00 | 0.03 | 0.03 | 79 | 1008.3 |
| 20260510024504 | 78 | 67 | 0.0 | 3.0 | 0.00 | 0.03 | 0.03 | 79 | 1008.1 |
| 20260510023003 | 79 | 59 | 1.0 | 7.0 | 0.00 | 0.03 | 0.03 | 78 | 1007.9 |
| 20260510021511 | 79 | 111 | 1.0 | 4.0 | 0.00 | 0.03 | 0.03 | 76 | 1007.7 |
| 20260510020006 | 80 | 114 | 1.0 | 3.0 | 0.00 | 0.03 | 0.03 | 75 | 1007.5 |
| 20260510014503 | 80 | 114 | 0.0 | 3.0 | 0.00 | 0.03 | 0.03 | 74 | 1007.2 |
| 20260510013004 | 81 | 104 | 0.0 | 2.0 | 0.00 | 0.03 | 0.03 | 72 | 1007.1 |
| 20260510011503 | 81 | 145 | 1.0 | 3.0 | 0.00 | 0.03 | 0.03 | 71 | 1007.0 |
| 20260510010006 | 82 | 96 | 1.0 | 4.0 | 0.00 | 0.03 | 0.03 | 69 | 1006.9 |
| 20260510004503 | 83 | 93 | 0.0 | 4.0 | 0.00 | 0.03 | 0.03 | 67 | 1006.8 |
| 20260510003004 | 84 | 91 | 1.0 | 5.0 | 0.00 | 0.03 | 0.03 | 64 | 1006.7 |
| 20260510001503 | 85 | 86 | 1.0 | 8.0 | 0.00 | 0.03 | 0.03 | 63 | 1006.6 |
| 20260510000009 | 86 | 86 | 2.0 | 5.0 | 0.00 | 0.03 | 0.03 | 61 | 1006.5 |
| 20260509234510 | 86 | 113 | 1.0 | 7.0 | 0.00 | 0.03 | 0.03 | 60 | 1006.3 |